Regional Weather Roundup
Issued by NWS Newport/Morehead, NC

Current Version | Previous Version | Text Only | Print | Product List | Glossary Off
Versions: 1 2 3 4 5 6 7 8 9 10 11 12 13 14 15 16 17 18 19 20 21 22 23 24 25 26 27 28 29 30 31 32 33 34 35 36 37 38 39 40 41 42 43 44 45 46 47 48 49 50
000 ASUS42 KMHX 251910 RWRMHX WEATHER ROUNDUP FOR EASTERN NORTH CAROLINA NATIONAL WEATHER SERVICE NEWPORT/MOREHEAD CITY NC 200 PM EST THU DEC 25 2014 NOTE: "FAIR" INDICATES FEW OR NO CLOUDS BELOW 12,000 FEET WITH NO SIGNIFICANT WEATHER AND/OR OBSTRUCTIONS TO VISIBILITY NCZ015>017-031-032-045>047-102-103-252000- NORTH COAST CITY SKY/WX TMP DP RH WIND PRES REMARKS EDENTON SUNNY 58 40 50 NW14G20 30.02R ELIZABETH CITY SUNNY 61 39 44 W18 30.01R KITTY HAWK MOCLDY 55 44 66 W8 30.01R MANTEO PTSUNNY 55 43 62 W8 30.03R $$ NCZ045>047-081-094-103-104-252000- CENTRAL COAST CITY SKY/WX TMP DP RH WIND PRES REMARKS FRISCO CLOUDY 54 44 69 NW8 30.03R SWANQUARTER N/A 59 N/A N/A NW8G17 29.97S $$ NCZ095-097-098-100-101-252000- SOUTHERN COAST CITY SKY/WX TMP DP RH WIND PRES REMARKS BEAUFORT CLOUDY 59 47 64 NW10 30.04R CEDAR ISLAND N/A 55 N/A N/A W8 30.06S JACKSONVILLE PTSUNNY 60 43 53 NW13 30.04R PINEY ISLAND CLOUDY 59 41 51 NW12 30.03R WILMINGTON PTSUNNY 59 44 57 W12 30.06R $$ NCZ011>013-027>030-043-044-078>080-089-090>093-098-252000- COASTAL PLAIN CITY SKY/WX TMP DP RH WIND PRES REMARKS AHOSKIE SUNNY 56 36 47 W5 30.03R CLINTON SUNNY 60 41 48 W9 30.07R ELIZABETHTOWN SUNNY 60 40 47 W9 30.07R GOLDSBORO SUNNY 60 40 46 W9 30.04R GREENVILLE SUNNY 59 37 44 W9 30.05S HAVELOCK CLOUDY 60 40 47 NW13 30.04R KENANSVILLE SUNNY 60 37 42 NW12G22 30.06S KINSTON SUNNY 61 36 39 NW9G16 30.05R NEW BERN MOSUNNY 62 40 44 W9 30.04R RICHLANDS MOSUNNY 59 41 51 W9 30.05R ROCKY MOUNT SUNNY 58 34 40 NW13 30.05R WASHINGTON SUNNY 58 39 49 W9G16 30.03R WHITEVILLE SUNNY 59 42 52 W6 30.08R $$ AMZ130-135-150-152-154-156-158-170-250-252-270-ANZ085-086-088-633-658-670-252000- MARINE OBSERVATIONS STATION/POSITION TIME TEMP WIND PRES WAVE SWELL AIR SEA DIR/SP/G HT/PER HT/PER (UTC) (F) (DEG/KT/KT) (MB) (FT/S) (FT/S) CHESAPEAKE LIGHT 1800 53 290/ 14/ 16 1015.7 64 E VA BEACH 1900 53 53 330/ 12/ 16 1015.2 5/ 8 3/ 8 DUCK 1900 55 50 300/ 11/ 14 1015.2 2 E DUCK 1900 51 N/A 2/ 9 10 NE DUCK 1900 50 N/A 3/ 9 OREGON INLET 1900 54 54 290/ 8/ 13 1016.2 13E OREGON INLT 1900 51 N/A 4/ 9 2/11 HATTERAS CG 1900 56 58 310/ 13/ 16 1017.1 DIAMOND BUOY 1900 58 1016.6 7/ 8 17 S OCRACOKE NOT AVBL CAPE LOOKOUT 1800 56 270/ 13/ 15 1016.6 BEAUFORT LAB 1900 58 55 300/ 7/ 11 1016.0 30 SE NEW RIVER 1900 55 60 280/ 14/ 16 1017.7 6/ 8 5/ 8 5 SE WRIGHTSVLE NOT AVBL 225 S CAPE HAT 1841 72 74 290/ 17/ 21 1018.5 41 SE CHARLESTON 1900 56 72 280/ 16/ 17 1019.8 4/ 6 2/ 7 $$

USA.gov is the U.S. government's official web portal to all federal, state and local government web resources and services.